When you browse on this site, cookies collect data to enhance your experience and personalize the content and advertising you see.
Visit our Privacy Policy to learn more. By continuing to use the site, you agree to this use of cookies and data.
  • In Lithuania
  • List of Countries
  • For 7 days
  • Water Temperature
  • Weather Map
  • Weather Widgets
  • user-avatar
    Login

    Hourly Weather Konjic

    Today, 18 August, Sunday

    Time Temperature Precipitation Wind Pressure Humidity
    00:00 +15°C° 0 mm 1 mps 697 mmHg 71%
    01:00 +14°C° 0 mm 1 mps 697 mmHg 72%
    02:00 +14°C° 0 mm 1 mps 697 mmHg 72%
    03:00 +14°C° 0 mm 1 mps 697 mmHg 72%
    04:00 +14°C° 0 mm 1 mps 697 mmHg 71%
    05:00 +16°C° 0 mm 1 mps 698 mmHg 68%
    06:00 +18°C° 0 mm 1 mps 698 mmHg 64%
    07:00 +18°C° 0 mm 0 mps 698 mmHg 61%
    08:00 +21°C° 0 mm 0 mps 699 mmHg 52%
    09:00 +23°C° 0 mm 0 mps 699 mmHg 44%
    10:00 +26°C° 0 mm 0 mps 700 mmHg 35%
    11:00 +27°C° 0 mm 0 mps 700 mmHg 34%
    12:00 +29°C° 0 mm 1 mps 700 mmHg 32%
    13:00 +30°C° 0 mm 1 mps 700 mmHg 30%
    14:00 +30°C° 0 mm 1 mps 700 mmHg 32%
    15:00 +30°C° 0 mm 1 mps 700 mmHg 34%
    16:00 +29°C° 0 mm 1 mps 699 mmHg 36%
    17:00 +26°C° 0 mm 1 mps 699 mmHg 45%
    18:00 +21°C° 0 mm 0 mps 698 mmHg 53%
    19:00 +19°C° 0 mm 0 mps 698 mmHg 61%
    20:00 +18°C° 0 mm 0 mps 698 mmHg 61%
    21:00 +20°C° 0 mm 1 mps 698 mmHg 61%
    22:00 +20°C° 0 mm 1 mps 698 mmHg 61%
    23:00 +19°C° 0 mm 1 mps 698 mmHg 61%

    Tomorrow, 19 August, Monday

    Time Temperature Precipitation Wind Pressure Humidity
    00:00 +19°C° 0 mm 1 mps 698 mmHg 62%
    01:00 +19°C° 0 mm 1 mps 698 mmHg 62%
    02:00 +18°C° 0 mm 1 mps 698 mmHg 62%
    03:00 +18°C° 0 mm 1 mps 698 mmHg 62%
    04:00 +18°C° 0 mm 1 mps 698 mmHg 62%
    05:00 +20°C° 0 mm 1 mps 698 mmHg 61%
    06:00 +19°C° 0 mm 0 mps 699 mmHg 59%
    07:00 +21°C° 0 mm 0 mps 699 mmHg 58%
    08:00 +23°C° 0 mm 0 mps 699 mmHg 52%
    09:00 +26°C° 0 mm 0 mps 700 mmHg 46%
    10:00 +28°C° 0 mm 0 mps 700 mmHg 40%
    11:00 +31°C° 0 mm 1 mps 700 mmHg 39%
    12:00 +32°C° 0 mm 1 mps 701 mmHg 37%
    13:00 +32°C° 0 mm 1 mps 701 mmHg 35%
    14:00 +32°C° 0 mm 1 mps 700 mmHg 37%
    15:00 +31°C° 0 mm 1 mps 700 mmHg 39%
    16:00 +31°C° 0 mm 1 mps 700 mmHg 41%
    17:00 +28°C° 0 mm 1 mps 699 mmHg 50%
    18:00 +26°C° 0 mm 1 mps 699 mmHg 59%
    19:00 +23°C° 0 mm 1 mps 699 mmHg 68%
    20:00 +22°C° 0 mm 1 mps 699 mmHg 69%
    21:00 +22°C° 0 mm 1 mps 699 mmHg 69%
    22:00 +21°C° 0 mm 1 mps 699 mmHg 70%
    23:00 +21°C° 0 mm 1 mps 699 mmHg 70%

    Day after tomorrow, 20 August, Tuesday

    Time Temperature Precipitation Wind Pressure Humidity
    00:00 +20°C° 0 mm 1 mps 699 mmHg 70%
    01:00 +20°C° 0 mm 1 mps 699 mmHg 69%
    02:00 +20°C° 0 mm 1 mps 699 mmHg 68%
    03:00 +20°C° 0 mm 1 mps 699 mmHg 67%
    04:00 +20°C° 0 mm 1 mps 699 mmHg 66%
    05:00 +21°C° 0 mm 1 mps 699 mmHg 64%
    06:00 +22°C° 0 mm 1 mps 700 mmHg 62%
    07:00 +24°C° 0 mm 1 mps 700 mmHg 60%
    08:00 +26°C° 0 mm 1 mps 700 mmHg 53%
    09:00 +29°C° 0 mm 1 mps 701 mmHg 46%
    10:00 +31°C° 0 mm 1 mps 701 mmHg 39%
    11:00 +32°C° 0 mm 1 mps 701 mmHg 37%
    12:00 +33°C° 0 mm 1 mps 701 mmHg 34%
    13:00 +34°C° 0 mm 1 mps 701 mmHg 32%
    14:00 +33°C° 0 mm 1 mps 701 mmHg 34%
    15:00 +33°C° 0 mm 1 mps 700 mmHg 35%
    16:00 +32°C° 0 mm 1 mps 700 mmHg 37%
    17:00 +29°C° 0 mm 1 mps 700 mmHg 45%
    18:00 +24°C° 0 mm 0 mps 699 mmHg 52%
    19:00 +22°C° 0 mm 0 mps 699 mmHg 60%
    20:00 +21°C° 0 mm 0 mps 699 mmHg 61%
    21:00 +23°C° 0 mm 1 mps 699 mmHg 61%
    22:00 +22°C° 0 mm 1 mps 699 mmHg 62%
    23:00 +22°C° 0 mm 1 mps 699 mmHg 62%

    21 August, Wednesday

    Time Temperature Precipitation Wind Pressure Humidity
    00:00 +21°C° 0 mm 1 mps 699 mmHg 62%
    01:00 +21°C° 0 mm 1 mps 699 mmHg 62%
    02:00 +21°C° 0 mm 1 mps 698 mmHg 63%
    03:00 +21°C° 0 mm 1 mps 698 mmHg 63%
    04:00 +21°C° 0 mm 1 mps 698 mmHg 63%
    05:00 +22°C° 0 mm 1 mps 699 mmHg 61%
    06:00 +23°C° 0 mm 1 mps 699 mmHg 60%
    07:00 +25°C° 0 mm 1 mps 700 mmHg 58%
    08:00 +27°C° 0 mm 1 mps 700 mmHg 53%
    09:00 +28°C° 0 mm 1 mps 701 mmHg 48%
    10:00 +30°C° 0 mm 2 mps 701 mmHg 42%
    11:00 +30°C° 0 mm 2 mps 701 mmHg 43%
    12:00 +30°C° 0 mm 3 mps 701 mmHg 44%
    13:00 +30°C° 0 mm 3 mps 701 mmHg 45%
    14:00 +30°C° 0 mm 3 mps 701 mmHg 50%
    15:00 +29°C° 0 mm 3 mps 700 mmHg 54%
    16:00 +28°C° 0 mm 3 mps 700 mmHg 59%
    17:00 +26°C° 0.2 mm 2 mps 700 mmHg 68%
    18:00 +24°C° 0.2 mm 2 mps 700 mmHg 77%
    19:00 +21°C° 0.2 mm 2 mps 699 mmHg 85%
    20:00 +20°C° 0 mm 2 mps 700 mmHg 87%
    21:00 +19°C° 0 mm 2 mps 700 mmHg 89%
    22:00 +19°C° 0 mm 2 mps 700 mmHg 91%
    23:00 +18°C° 0 mm 2 mps 700 mmHg 91%

    22 August, Thursday

    Time Temperature Precipitation Wind Pressure Humidity
    00:00 +18°C° 0 mm 2 mps 700 mmHg 92%
    01:00 +18°C° 0 mm 2 mps 700 mmHg 93%
    02:00 +17°C° 0 mm 2 mps 700 mmHg 93%
    03:00 +17°C° 0 mm 2 mps 699 mmHg 93%
    04:00 +17°C° 0 mm 2 mps 699 mmHg 94%
    05:00 +19°C° 0 mm 1 mps 700 mmHg 91%
    06:00 +20°C° 0 mm 1 mps 700 mmHg 88%
    07:00 +21°C° 0 mm 1 mps 700 mmHg 86%
    08:00 +23°C° 0 mm 1 mps 701 mmHg 75%
    09:00 +26°C° 0 mm 1 mps 701 mmHg 65%
    10:00 +28°C° 0 mm 1 mps 702 mmHg 55%
    11:00 +29°C° 0.1 mm 2 mps 701 mmHg 51%
    12:00 +29°C° 0.1 mm 2 mps 701 mmHg 48%
    13:00 +30°C° 0.1 mm 2 mps 701 mmHg 44%
    14:00 +29°C° 0.2 mm 2 mps 701 mmHg 49%
    15:00 +29°C° 0.2 mm 2 mps 701 mmHg 53%
    16:00 +28°C° 0.2 mm 2 mps 700 mmHg 57%
    17:00 +26°C° 0.6 mm 2 mps 700 mmHg 66%
    18:00 +24°C° 0.6 mm 2 mps 700 mmHg 74%
    19:00 +20°C° 0.6 mm 2 mps 700 mmHg 83%
    20:00 +20°C° 0.3 mm 2 mps 700 mmHg 85%
    21:00 +19°C° 0.3 mm 2 mps 700 mmHg 87%
    22:00 +19°C° 0.3 mm 2 mps 700 mmHg 88%
    23:00 +18°C° 0.1 mm 2 mps 700 mmHg 89%

    23 August, Friday

    Time Temperature Precipitation Wind Pressure Humidity
    00:00 +18°C° 0.1 mm 2 mps 700 mmHg 90%
    01:00 +18°C° 0.1 mm 2 mps 700 mmHg 91%
    02:00 +17°C° 0 mm 2 mps 700 mmHg 92%
    03:00 +17°C° 0 mm 2 mps 700 mmHg 93%
    04:00 +17°C° 0 mm 2 mps 700 mmHg 94%
    05:00 +18°C° 0 mm 2 mps 700 mmHg 93%
    06:00 +18°C° 0 mm 2 mps 700 mmHg 91%
    07:00 +19°C° 0 mm 2 mps 701 mmHg 90%
    08:00 +21°C° 0 mm 2 mps 701 mmHg 83%
    09:00 +23°C° 0 mm 2 mps 701 mmHg 76%
    10:00 +25°C° 0 mm 2 mps 702 mmHg 70%
    11:00 +25°C° 0.3 mm 2 mps 702 mmHg 68%
    12:00 +26°C° 0.3 mm 2 mps 701 mmHg 66%
    13:00 +26°C° 0.3 mm 3 mps 701 mmHg 64%
    14:00 +26°C° 0.5 mm 3 mps 701 mmHg 66%
    15:00 +26°C° 0.5 mm 3 mps 701 mmHg 68%
    16:00 +25°C° 0.5 mm 3 mps 700 mmHg 70%
    17:00 +24°C° 0.7 mm 2 mps 700 mmHg 76%
    18:00 +21°C° 0.7 mm 2 mps 700 mmHg 83%
    19:00 +19°C° 0.7 mm 2 mps 700 mmHg 89%
    20:00 +19°C° 0 mm 2 mps 700 mmHg 90%
    21:00 +18°C° 0 mm 2 mps 700 mmHg 90%
    22:00 +18°C° 0 mm 2 mps 700 mmHg 91%
    23:00 +17°C° 0 mm 2 mps 700 mmHg 92%
    Show more